Location: Hengforden
(52.3167°N, 6.1333°E)
Time: 23:54:02
(UTC+00:00)

Daily predictions for brighter satellites

Satellite Brightness Start Highest point End
(mag) Time Altitude Azimuth Time Altitude Azimuth Time Altitude Azimuth
Cosmos 1459 Rocket 4.2 20:35:39 10° N 20:41:58 69° ENE 20:48:18 10° SSE
Cosmos 1802 Rocket 4.3 20:40:29 10° N 20:46:52 59° ENE 20:53:11 10° SSE
Meteor 1-15 Rocket 4.4 20:41:15 10° N 20:46:53 62° ENE 20:52:24 10° SSE
Cosmos 1666 Rocket 4.1 20:44:17 10° NNW 20:48:41 60° W 20:53:03 10° S
Meteor 2-10 Rocket 4.1 20:43:03 10° NNW 20:48:45 66° W 20:54:15 10° S
USA 305 3.3 20:48:05 10° SSW 20:51:29 29° SE 20:54:28 10° E
Cosmos 1953 3.7 20:49:31 10° NNE 20:52:37 24° ENE 20:55:43 10° SE
Okean-O 4.0 20:53:02 10° SSW 20:57:04 35° W 21:01:07 10° NNW
Cosmos 1633 Rocket 3.6 20:54:34 10° NNW 20:58:48 56° W 21:03:02 10° S
Meteor 1-22 Rocket 4.2 20:53:42 10° NNW 20:59:03 87° ENE 21:04:33 10° SSE
Lacrosse 4 Rocket 1.6 20:55:34 10° NW 20:59:45 69° WSW 21:03:57 10° SSE
NOSS 3-4 (A) 3.2 20:57:28 10° SW 21:02:53 85° SE 21:08:58 10° NE
NOSS 3-4 (C) 3.2 20:57:35 10° SW 21:02:59 84° SE 21:09:03 10° NE
Cosmos 2016 Rocket 4.2 20:59:45 10° N 21:06:05 67° ENE 21:12:25 10° SSE
Cosmos 1818 3.6 21:00:43 10° SSW 21:06:05 61° SE 21:11:28 10° NE
Cosmos 1455 3.2 21:07:30 10° NNW 21:09:52 26° W 21:12:13 10° SSW
Cosmos 1328 Rocket 4.3 21:09:30 10° SSW 21:13:49 56° WNW 21:18:11 10° N
USA 59 Rocket 2.0 21:12:56 10° NNW 21:15:11 18° NNE 21:17:42 10° ENE
Cosmos 614 Rocket 4.2 21:10:30 10° SSW 21:15:40 77° WNW 21:20:50 10° NNE
Ariane Rocket 3.3 21:10:38 10° S 21:15:41 68° WSW 21:20:47 10° NNW
Cosmos 2297 Rocket 2.7 21:10:07 10° SW 21:15:44 65° NW 21:21:25 10° NNE
Cosmos 1470 Rocket 4.2 21:15:08 10° NNW 21:19:21 53° W 21:23:35 10° S
GP-B 3.5 21:15:49 10° NNE 21:20:04 47° E 21:23:59 12° SSE
SPOT 3 Rocket 4.0 21:15:24 10° S 21:20:28 58° WSW 21:25:35 10° NNW
Cosmos 1758 4.2 21:18:29 10° NNW 21:22:03 42° W 21:25:34 10° SSW
Cosmos 2084 Rocket 3.9 21:21:35 10° NW 21:25:37 49° SW 21:29:07 13° SSE
Meteor 1-12 Rocket 4.4 21:20:01 10° N 21:25:55 76° ENE 21:31:34 12° SSE
ATLAS CENTAUR R/B 2.6 21:24:38 10° WNW 21:27:55 27° WSW 21:31:05 10° S
Meteor 1-13 Rocket 4.5 21:24:10 10° SSW 21:30:06 80° WNW 21:36:00 10° NNE
Cosmos 1933 Rocket 3.6 21:26:07 10° NNW 21:30:32 82° W 21:34:40 11° S
SL-16 R/B 2.4 21:30:58 10° NW 21:36:35 66° WSW 21:41:38 13° SSE
NOSS 3 (A) 4.3 21:34:59 10° NW 21:37:21 68° SW 21:39:33 16° SE
Terra 4.1 21:36:33 10° SW 21:39:49 18° W 21:43:07 10° NW
Cosmos 1515 Rocket 3.9 21:36:11 10° SSW 21:40:35 67° WNW 21:45:02 10° N
Cosmos 2344 4.1 21:32:51 10° NW 21:40:35 76° NE 21:50:53 10° SE
ALOS 2 4.4 21:37:38 10° ESE 21:41:02 22° ENE 21:44:27 10° N
DELTA 2 DEB (DPAF) 4.1 21:37:30 10° NNE 21:41:18 48° E 21:44:30 14° S
Cosmos 1733 Rocket 3.9 21:37:28 10° N 21:41:35 38° ENE 21:45:01 14° SE
Meteor 1-23 Rocket 4.2 21:36:20 10° S 21:41:54 83° E 21:47:33 10° NNE
Cosmos 2233 Rocket 4.1 21:37:27 10° N 21:43:49 87° E 21:49:37 13° S
Cosmos 2227 Rocket 2.4 21:38:36 10° SW 21:44:15 77° WNW 21:49:57 10° NNE
COSMOS 2455 4.3 21:39:50 10° NW 21:44:46 27° WSW 21:49:42 10° SSW
Cosmos 1869 Rocket 3.6 21:40:25 10° NNW 21:44:51 88° W 21:48:34 14° S
RESURS DK-1 2.2 21:41:16 10° SSW 21:45:17 85° ESE 21:49:19 10° NE
Meteor 1-16 Rocket 4.3 21:41:16 10° NNW 21:47:04 88° ENE 21:52:16 14° SSE
Meteor 1-21 4.3 21:42:23 10° S 21:48:04 76° E 21:53:51 10° NNE
Cosmos 2263 Rocket 2.2 21:43:12 10° SSW 21:48:48 67° ESE 21:54:28 10° NE
Okean 2 3.8 21:50:02 16° SSE 21:52:50 43° E 21:56:33 10° NNE
Okean 3 3.9 21:50:58 16° SSE 21:53:58 45° E 21:57:53 10° NNE
Aureole 3 Rocket 3.9 21:52:14 10° NNE 21:54:54 25° ENE 21:57:13 13° SE
Cosmos 1943 3.3 21:52:29 10° NNW 21:58:13 76° ENE 22:03:04 15° SE
ASTEX 1 4.0 21:53:57 10° NNE 21:58:44 45° E 22:02:22 16° SSE
Cosmos 1437 Rocket 3.5 21:56:30 10° SW 21:59:53 44° WNW 22:03:22 10° N
SeaSat 1 4.0 21:59:20 10° ESE 22:03:37 31° NE 22:07:54 10° NNW
Geosat 4.0 22:02:48 10° NNE 22:07:51 88° ESE 22:12:52 10° SSW
Cosmos 1763 Rocket 3.8 22:03:06 10° NNW 22:08:15 62° ENE 22:12:24 15° SE
Cosmos 2219 3.2 22:03:55 10° SSW 22:09:39 81° ESE 22:15:27 10° NNE
COBE Rocket 4.1 22:05:04 10° N 22:10:10 77° WNW 22:15:06 10° SSW
MetOp-A 3.8 22:10:28 17° SSE 22:14:07 73° ENE 22:18:36 10° NNW
Cosmos 1862 Rocket 4.1 22:11:29 18° SSE 22:14:28 46° E 22:18:42 10° NNE
Cosmos 1603 4.1 22:10:08 10° NNW 22:15:43 60° NE 22:20:41 13° SE
USA 290 2.1 22:14:12 14° SSW 22:16:54 89° NW 22:20:08 10° NNE
Cosmos 1271 Rocket 4.5 22:16:29 13° ESE 22:18:07 17° E 22:20:33 10° NE
Meteor 2-16 Rocket 4.5 22:12:54 11° SSW 22:18:48 84° WNW 22:24:57 10° N
Cosmos 2082 3.7 22:13:26 10° SSW 22:19:08 75° ESE 22:24:53 10° NNE
Cosmos 2292 Rocket 2.6 22:18:12 24° S 22:19:48 63° E 22:22:42 10° NNE
USA 305 2.1 22:16:14 10° WSW 22:19:56 89° SW 22:22:52 10° ENE
SWAS 4.3 22:17:55 10° NW 22:22:01 83° WSW 22:24:44 20° SSE
Okean 1-7 3.7 22:19:41 19° SSE 22:22:07 36° E 22:25:56 10° NNE
ARIANE 5 R/B 2.6 22:20:49 19° SSE 22:23:59 84° ENE 22:28:29 10° NNW
Cosmos 546 4.5 22:21:07 10° WSW 22:24:54 66° S 22:28:42 10° E
SL-4 R/B 2.7 22:22:12 10° SSW 22:25:51 31° SSE 22:29:25 10° E
Cosmos 1953 3.4 22:24:32 10° NNW 22:27:57 34° W 22:30:44 14° SSW
Cosmos 1140 Rocket 3.4 22:26:48 11° SSW 22:31:44 87° ESE 22:36:54 10° NNE
NOSS 2-1 (C) 4.2 22:30:52 10° NW 22:34:00 42° NE 22:37:56 10° ESE
Spot 4 3.9 22:30:33 19° SSE 22:34:00 78° ENE 22:38:52 10° NNW
NOSS 3-1 (C) 4.0 22:29:08 10° NW 22:36:05 73° SW 22:43:28 15° SSE
Lacrosse 4 Rocket 4.0 22:36:28 10° W 22:36:54 10° WSW 22:37:20 10° WSW
Cosmos 1703 2.9 22:34:57 21° S 22:37:07 89° W 22:40:38 10° N
NOSS 2-1 (E) 4.2 22:34:25 10° NW 22:37:35 41° NE 22:41:31 10° ESE
Cosmos 1072 Rocket 4.5 22:34:30 10° N 22:40:42 80° E 22:45:16 19° SSE
SJ 16-02 3.4 22:38:57 11° ESE 22:40:47 13° E 22:42:53 10° ENE
Cosmos 1892 2.0 22:43:00 27° S 22:44:29 89° E 22:47:31 10° N
CZ-4C R/B 3.6 22:47:10 10° N 22:50:19 48° WNW 22:52:42 16° SW
DNEPR-1 R/B 4.4 22:46:57 10° WSW 22:52:34 63° NW 22:57:16 10° NE
USA 307 3.9 22:54:11 21° SE 22:54:17 21° SE 22:57:19 10° E
Cosmos 407 Rocket 3.4 22:50:55 17° SSW 22:54:55 79° ESE 23:00:03 10° NNE
Cosmos 2228 Rocket 3.2 22:54:32 19° SSW 22:57:44 76° WNW 23:02:11 10° N
Cosmos 1844 Rocket 3.0 22:54:47 19° S 22:58:37 53° ESE 23:04:08 10° NE
Cosmos 1782 Rocket 4.5 22:56:38 10° N 23:00:49 41° ENE 23:03:55 17° SE
USA 234 4.4 22:56:11 10° ENE 23:01:12 23° SE 23:03:50 18° SSE
OPS 6432 4.2 22:58:19 10° NW 23:01:42 88° NE 23:03:35 23° SE
Cosmos 1703 Rocket 4.1 22:59:24 22° SSE 23:01:49 45° E 23:05:57 10° NNE
Cosmos 2251 Rocket 3.7 22:59:04 20° S 23:02:44 62° ESE 23:08:02 10° NNE
Cosmos 1844 4.0 22:59:50 20° S 23:03:26 50° ESE 23:08:48 10° NE
USA 59 Rocket -0.2 23:01:12 10° NW 23:04:35 75° NE 23:08:26 13° SE
Landsat 5 3.5 23:02:48 10° NNE 23:07:06 81° WNW 23:09:56 20° SSW
Cosmos 1707 Rocket 4.1 23:05:01 16° SSW 23:08:14 53° WNW 23:12:29 10° N
ATLAS 3B R/B 3.8 23:02:57 10° NW 23:10:42 54° NNE 23:18:18 10° ESE
Cosmos 1954 Rocket 4.5 23:07:46 21° S 23:10:53 46° ESE 23:15:51 10° NE
Cosmos 540 Rocket 3.7 23:06:21 10° NNW 23:11:22 55° WSW 23:14:32 22° S
Cosmos 1190 Rocket 4.1 23:12:32 21° S 23:16:00 62° ESE 23:21:13 10° NNE
Tsikada Rocket 4.4 23:12:12 19° SSE 23:16:31 51° E 23:22:34 10° NNE
ALOS 2 2.9 23:14:27 23° S 23:17:03 56° W 23:21:24 10° NNW
Meteor 1-24 Rocket 4.2 23:13:40 20° SSE 23:17:43 54° E 23:23:27 10° NNE
SL-16 R/B 4.4 23:17:21 10° WNW 23:19:36 12° W 23:21:50 10° WSW
Cosmos 1606 3.8 23:18:58 10° NNE 23:21:36 25° ENE 23:23:21 16° ESE
Cosmos 468 Rocket 4.1 23:17:07 10° NNW 23:22:13 62° WSW 23:25:26 22° S
Cosmos 841 Rocket 3.6 23:18:13 10° NNW 23:23:31 75° ENE 23:27:33 17° SSE
NOSS 3-1 (A) 4.0 23:17:28 10° NW 23:24:27 73° SW 23:32:25 12° SSE
Spot 1 4.4 23:20:18 10° NNE 23:25:15 81° ESE 23:28:37 21° SSW
Cosmos 1464 Rocket 4.4 23:20:25 10° NNW 23:26:34 56° W 23:31:00 19° SSW
BREEZE-M DEB (TANK) 4.5 23:28:12 21° S 23:28:54 22° SSE 23:31:43 10° ESE
ATLAS 2AS CENTAUR R/B 3.4 23:25:05 20° S 23:29:30 40° ESE 23:35:51 10° NE
Meteor 2-5 Rocket 4.0 23:27:46 21° S 23:31:48 63° E 23:37:42 10° NNE
Cosmos 2263 Rocket 3.9 23:28:07 10° WSW 23:33:11 32° NW 23:38:15 10° NNE
Cosmos 2034 Rocket 4.1 23:27:21 10° NNW 23:33:33 71° W 23:37:59 20° S
H-2A R/B 3.9 23:31:18 10° ESE 23:34:22 26° ENE 23:37:29 10° N
Cosmos 1833 Rocket 3.4 23:32:11 10° NNW 23:37:42 52° NE 23:43:10 10° SE
Cosmos 1908 Rocket 4.1 23:35:19 10° NNW 23:39:32 49° W 23:42:02 22° SSW
SeaSat 1 2.5 23:37:33 21° SSE 23:40:45 63° WSW 23:45:38 10° NW
Aureole 3 Rocket 4.4 23:39:25 10° NW 23:41:46 19° W 23:43:25 14° SW
USA 305 2.6 23:45:27 10° W 23:48:38 50° N 23:50:56 10° ENE
Cosmos 1271 Rocket 3.4 23:50:19 20° SW 23:52:30 43° WNW 23:55:59 10° N
CZ-2C R/B 4.3 23:49:00 10° NNE 23:53:54 32° E 23:57:35 15° SSE
NOSS 2-1 (D) 3.6 23:51:31 10° WNW 23:54:54 46° SW 23:57:18 22° SSE
